Miscellaneous Local Product
Issued by NWS Hastings, NE

Home | Current Version | Previous Version | Graphics & Text | Print | Product List | Glossary On
Versions: 1 2 3 4 5 6 7 8 9 10 11 12 13 14 15 16 17 18 19 20 21 22 23 24 25 26 27 28 29 30 31 32 33 34 35 36 37 38 39 40 41 42 43 44 45 46 47 48 49 50
000
AXUS43 KGID 220310
MISGRI

GID CWA HOURLY WEATHER ROUNDUP
NATIONAL WEATHER SERVICE HASTINGS NE
1000 PM CDT MON JUL 21 2014

NOTE: "FAIR" INDICATES FEW OR NO CLOUDS BELOW 12,000 FEET WITH NO
SIGNIFICANT WEATHER AND/OR OBSTRUCTIONS TO VISIBILITY.

...SOUTH CENTRAL NEBRASKA...

CITY           SKY/WX    TMP DP  RH WIND       PRES   REMARKS
GRAND ISLAND   FAIR      90  69  50 S12       29.89R HX  94
HASTINGS       FAIR      87  70  56 S8        29.91R HX  92
KEARNEY        FAIR      86  70  58 SW10      29.93R HX  90
ORD            MOCLDY    79  74  84 CALM      29.86R
YORK           FAIR      86  73  66 S14       29.89R HX  93
AURORA         FAIR      87  73  62 S10       29.89R HX  94
LEXINGTON      PTCLDY    80  70  70 S3        29.93R
HOLDREGE       FAIR      84  69  60 CALM      29.94R
HEBRON         FAIR      87  67  50 S9        29.90S HX  90

...NEBRASKA PANHANDLE...

CITY           SKY/WX    TMP DP  RH WIND       PRES   REMARKS
CHADRON        PTCLDY    87  46  24 S15       29.92R
ALLIANCE       PTCLDY    75  51  43 S7        30.00R
SCOTTSBLUFF    CLEAR     72  61  68 E6        30.01R
SIDNEY         MOCLDY    79  47  32 E9        30.09R

...WESTERN AND NORTH CENTRAL NEBRASKA...

CITY           SKY/WX    TMP DP  RH WIND       PRES   REMARKS
VALENTINE      CLEAR     80  64  58 SW5       29.87R
AINSWORTH      CLEAR     78  61  55 S8        29.89R
ONEILL         CLEAR     82  65  57 S5        29.85R
BROKEN BOW     PTCLDY    80  66  62 CALM      29.91R
IMPERIAL       CLEAR     82  57  42 S12       29.99R
NORTH PLATTE   PTCLDY    81  58  45 S8        29.95R
MCCOOK         PTCLDY    80  61  52 SW6       29.95R

...EASTERN NEBRASKA...

CITY           SKY/WX    TMP DP  RH WIND       PRES   REMARKS
NORFOLK        FAIR      85  76  74 S9        29.83R HX  94
SO SIOUX CITY  FAIR      85  78  80 SE6       29.80R HX  96
TEKAMAH        FAIR      86  79  79 SE8       29.82R HX  99
COLUMBUS       FAIR      88  72  58 SW8       29.85R HX  94
ALBION         FAIR      83  73  71 CALM      29.86R
OMAHA EPPLEY   MOCLDY    89  76  65 S13       29.85R HX 100
OFFUTT AFB     FAIR      85  81  88 E1        29.86R HX 101
MILLARD        FAIR      87  76  71 SE5       29.86R HX  98
LINCOLN        FAIR      92  71  50 SW15      29.86R HX  98
NEBRASKA CITY  FAIR      83  74  75 S12       29.88R HX  90
BEATRICE       FAIR      82  71  69 S9        29.90R
FALLS CITY     FAIR      86  74  67 S12G21    29.90R HX  94

...NORTHERN KANSAS...

CITY           SKY/WX    TMP DP  RH WIND       PRES   REMARKS
GOODLAND       CLEAR     74  61  63 SE12      30.07R
HILL CITY      FAIR      89  64  43 S10       29.94R HX  90
NORTON         CLEAR     88  61  40 S10G16    29.93
PHILLIPSBURG   CLEAR     90  68  48 S10       29.89F HX  93
SMITH CENTER   CLEAR     88  70  55 S15G22    29.92R HX  92
HAYS           FAIR      84  66  54 S10       29.98R
RUSSELL        FAIR      85  70  60 S14       29.95S
CONCORDIA      FAIR      89  69  51 S17       29.93R HX  93
SALINA         FAIR      86  68  54 S7        29.96R
TOPEKA         FAIR      87  74  64 S9        29.97R HX  95



USA.gov is the U.S. government's official web portal to all federal, state and local government web resources and services.